Find Starlink 6207

NORAD ID: 56900 Int'l Des: 2023-083 Owner: SPXS Country: US Constellation: starlink operational
LEOCIRCULAR

Live-Position

3D-Globus wird geladen...

Über Starlink 6207

Beschreibung wird geladen...

Nächste Überflüge

Passes for default location (London). Set your location on the main map for personalized predictions.

Höhenverlauf

Loading altitude history...

Zweizeiliger Elementsatz

1 56900U 23083AA 26106.79435941 .00001964 00000-0 82832-4 0 9990
2 56900 43.0019 215.6680 0000977 255.3919 104.6824 15.26758682157596
Epoch: 16. Apr. 2026 • Age: 15 hours

Aktueller Status

Höhe 495.7 km
Geschwindigkeit 7.62 km/s
Subsatellitenpunkt -37.00°S, 86.28°E
Startdatum 12. Juni 2023
Alter 2.8 years
Typ internet

Technische Details

Klassifizierung Payload
Masse 305.00 kg
Trockenmasse 290.00 kg
Gesamtmasse 305.00 kg
Länge 0.20 m
Durchmesser 2.80 m
Spannweite 9.00 m
Form Box + pan
Hersteller SPXS
Bus-Typ Starlink
Phasenstatus In Orbit
Besitzer/Staat SPXS/US

Most Searched